Location: Zagreb
(45.8000°N, 16.0000°E)
Time: 18:07:56
(UTC+02:00)

A-11 Canister half - Pass Details

Date: 10 August 2022
Orbit: 1524 x 1684 km, 47.3° (Epoch: 05 October)

Event Time Altitude Azimuth Distance (km) Brightness Sun altitude
Rises 04:53:06 0° 192° (SSW) 4,886 11.2 -9.4°
Reaches altitude 10° 04:56:57 10° 180° (S) 3,917 10.8 -8.9°
Maximum altitude 05:04:39 26° 130° (SE) 2,886 10.7 -7.8°
Drops below altitude 10° 05:12:23 10° 79° (E) 3,948 12.5 -6.6°
Sets 05:16:14 0° 68° (ENE) 4,931 14.1 -6.0°
